| time (UTC) | temp F | wind direction | speed knots | gust knots | rain 1hr in | rain 24hr in | rain mn in | humidity % | barometer mb |
| 20260510193522 | 76 | 0.0 | 0.0 | 0.00 | 0.09 | 0.00 | 56 | ||
| 20260510192517 | 74 | 0.0 | 0.0 | 0.00 | 0.10 | 0.00 | 60 | ||
| 20260510191538 | 73 | 0.0 | 0.0 | 0.00 | 0.10 | 0.00 | 60 | ||
| 20260510190522 | 73 | 0.0 | 0.0 | 0.00 | 0.10 | 0.00 | 59 | ||
| 20260510185522 | 73 | 0.0 | 0.0 | 0.00 | 0.10 | 0.00 | 57 | ||
| 20260510184522 | 74 | 0.0 | 0.0 | 0.00 | 0.10 | 0.00 | 56 | ||
| 20260510183521 | 75 | 0.0 | 0.0 | 0.00 | 0.11 | 0.00 | 55 | ||
| 20260510182522 | 75 | 0.0 | 0.0 | 0.00 | 0.11 | 0.00 | 56 | ||
| 20260510181517 | 74 | 0.0 | 0.0 | 0.00 | 0.11 | 0.00 | 58 | ||
| 20260510180522 | 72 | 0.0 | 0.0 | 0.00 | 0.11 | 0.00 | 61 | ||
| 20260510175522 | 73 | 0.0 | 0.0 | 0.00 | 0.11 | 0.00 | 57 | ||
| 20260510174522 | 73 | 0.0 | 0.0 | 0.00 | 0.12 | 0.00 | 57 | ||
| 20260510173523 | 74 | 0.0 | 0.0 | 0.00 | 0.12 | 0.00 | 56 | ||
| 20260510172523 | 73 | 0.0 | 0.0 | 0.00 | 0.13 | 0.00 | 59 | ||
| 20260510171522 | 73 | 0.0 | 0.0 | 0.00 | 0.14 | 0.00 | 57 | ||
| 20260510170537 | 73 | 0.0 | 0.0 | 0.00 | 0.14 | 0.00 | 57 | ||
| 20260510165522 | 73 | 0.0 | 0.0 | 0.00 | 0.15 | 0.00 | 58 | ||
| 20260510164522 | 72 | 0.0 | 0.0 | 0.00 | 0.15 | 0.00 | 61 | ||
| 20260510163523 | 72 | 0.0 | 0.0 | 0.00 | 0.16 | 0.00 | 60 | ||
| 20260510162522 | 71 | 0.0 | 0.0 | 0.00 | 0.16 | 0.00 | 62 | ||
| 20260510161522 | 70 | 0.0 | 0.0 | 0.00 | 0.17 | 0.00 | 64 | ||
| 20260510160516 | 69 | 0.0 | 0.0 | 0.00 | 0.17 | 0.00 | 66 | ||
| 20260510155542 | 68 | 0.0 | 0.0 | 0.00 | 0.17 | 0.00 | 68 | ||
| 20260510154522 | 67 | 0.0 | 0.0 | 0.00 | 0.18 | 0.00 | 69 | ||
| 20260510153602 | 66 | 0.0 | 0.0 | 0.00 | 0.18 | 0.00 | 71 | ||
| 20260510152522 | 65 | 0.0 | 0.0 | 0.00 | 0.19 | 0.00 | 74 | ||
| 20260510151522 | 64 | 0.0 | 0.0 | 0.00 | 0.19 | 0.00 | 75 | ||
| 20260510150517 | 63 | 0.0 | 0.0 | 0.00 | 0.19 | 0.00 | 76 | ||
| 20260510145516 | 63 | 0.0 | 0.0 | 0.00 | 0.19 | 0.00 | 77 | ||
| 20260510144522 | 62 | 0.0 | 0.0 | 0.00 | 0.20 | 0.00 | 78 | ||
| 20260510143522 | 62 | 0.0 | 0.0 | 0.00 | 0.20 | 0.00 | 79 | ||
| 20260510142522 | 62 | 0.0 | 0.0 | 0.00 | 0.20 | 0.00 | 80 | ||
| 20260510141522 | 61 | 0.0 | 0.0 | 0.00 | 0.21 | 0.00 | 82 | ||
| 20260510140603 | 60 | 0.0 | 0.0 | 0.00 | 0.21 | 0.00 | 86 | ||
| 20260510135516 | 59 | 0.0 | 0.0 | 0.00 | 0.21 | 0.00 | 89 | ||
| 20260510134517 | 58 | 0.0 | 0.0 | 0.00 | 0.22 | 0.00 | 91 | ||
| 20260510133521 | 58 | 0.0 | 0.0 | 0.00 | 0.22 | 0.00 | 92 | ||
| 20260510132522 | 58 | 0.0 | 0.0 | 0.00 | 0.22 | 0.00 | 93 | ||
| 20260510131542 | 57 | 0.0 | 0.0 | 0.00 | 0.22 | 0.00 | 95 | ||
| 20260510130522 | 57 | 0.0 | 0.0 | 0.00 | 0.23 | 0.00 | 95 | ||
| 20260510125522 | 56 | 0.0 | 0.0 | 0.00 | 0.23 | 0.00 | 96 | ||
| 20260510124516 | 56 | 0.0 | 0.0 | 0.00 | 0.23 | 0.00 | 97 | ||
| 20260510123522 | 56 | 0.0 | 0.0 | 0.00 | 0.23 | 0.00 | 97 | ||
| 20260510122522 | 56 | 0.0 | 0.0 | 0.00 | 0.23 | 0.00 | 98 | ||
| 20260510121542 | 56 | 0.0 | 0.0 | 0.00 | 0.23 | 0.00 | 99 | ||
| 20260510120522 | 56 | 0.0 | 0.0 | 0.00 | 0.23 | 0.00 | 99 | ||
| 20260510115520 | 56 | 0.0 | 0.0 | 0.00 | 0.23 | 0.00 | 99 | ||
| 20260510114522 | 56 | 0.0 | 0.0 | 0.00 | 0.24 | 0.00 | 99 | ||
| 20260510113557 | 55 | 0.0 | 0.0 | 0.00 | 0.24 | 0.00 | 100 | ||
| 20260510112522 | 55 | 0.0 | 0.0 | 0.00 | 0.24 | 0.00 | 100 | ||
| 20260510111522 | 55 | 0.0 | 0.0 | 0.00 | 0.25 | 0.00 | 100 | ||
| 20260510110523 | 55 | 0.0 | 0.0 | 0.00 | 0.25 | 0.00 | 100 | ||
| 20260510105522 | 55 | 0.0 | 0.0 | 0.00 | 0.26 | 0.00 | 100 | ||
| 20260510104522 | 54 | 0.0 | 0.0 | 0.00 | 0.27 | 0.00 | 100 | ||
| 20260510103522 | 54 | 0.0 | 0.0 | 0.00 | 0.27 | 0.00 | 100 | ||
| 20260510102516 | 54 | 0.0 | 0.0 | 0.00 | 0.28 | 0.00 | 100 | ||
| 20260510101522 | 54 | 0.0 | 0.0 | 0.00 | 0.29 | 0.00 | 100 | ||
| 20260510100522 | 54 | 0.0 | 0.0 | 0.00 | 0.31 | 0.00 | 100 | ||
| 20260510095522 | 54 | 0.0 | 0.0 | 0.00 | 0.31 | 0.00 | 100 | ||
| 20260510094542 | 54 | 0.0 | 0.0 | 0.00 | 0.32 | 0.00 | 100 | ||
| 20260510093522 | 54 | 0.0 | 0.0 | 0.00 | 0.33 | 0.00 | 100 | ||
| 20260510092517 | 54 | 0.0 | 0.0 | 0.00 | 0.34 | 0.00 | 100 | ||
| 20260510091516 | 54 | 0.0 | 0.0 | 0.00 | 0.34 | 0.00 | 100 | ||
| 20260510090522 | 54 | 0.0 | 0.0 | 0.00 | 0.34 | 0.00 | 100 | ||
| 20260510085522 | 54 | 0.0 | 0.0 | 0.00 | 0.34 | 0.00 | 100 | ||
| 20260510084542 | 54 | 0.0 | 0.0 | 0.00 | 0.34 | 0.00 | 100 | ||
| 20260510083522 | 54 | 0.0 | 0.0 | 0.00 | 0.34 | 0.00 | 100 | ||
| 20260510082522 | 54 | 0.0 | 0.0 | 0.00 | 0.34 | 0.00 | 100 | ||
| 20260510081517 | 54 | 0.0 | 0.0 | 0.00 | 0.34 | 0.00 | 100 | ||
| 20260510080516 | 54 | 0.0 | 0.0 | 0.00 | 0.34 | 0.00 | 100 | ||
| 20260510075521 | 54 | 0.0 | 0.0 | 0.00 | 0.34 | 0.00 | 100 | ||
| 20260510074542 | 54 | 0.0 | 0.0 | 0.00 | 0.34 | 0.00 | 100 | ||
| 20260510073542 | 54 | 0.0 | 0.0 | 0.00 | 0.34 | 0.00 | 100 | ||
| 20260510072521 | 54 | 0.0 | 0.0 | 0.00 | 0.34 | 0.00 | 100 | ||
| 20260510071522 | 54 | 0.0 | 0.0 | 0.00 | 0.34 | 0.00 | 100 | ||
| 20260510070516 | 54 | 0.0 | 0.0 | 0.00 | 0.34 | 0.00 | 100 | ||
| 20260510065516 | 54 | 0.0 | 0.0 | 0.00 | 0.34 | 0.00 | 100 | ||
| 20260510064522 | 53 | 0.0 | 0.0 | 0.00 | 0.34 | 0.00 | 100 | ||
| 20260510063521 | 53 | 0.0 | 0.0 | 0.00 | 0.34 | 0.00 | 100 | ||
| 20260510062521 | 53 | 0.0 | 0.0 | 0.00 | 0.34 | 0.00 | 100 | ||
| 20260510061522 | 53 | 0.0 | 0.0 | 0.00 | 0.34 | 0.00 | 100 | ||
| 20260510060522 | 53 | 0.0 | 0.0 | 0.00 | 0.34 | 0.00 | 100 | ||
| 20260510055516 | 53 | 0.0 | 0.0 | 0.00 | 0.34 | 0.00 | 100 | ||
| 20260510054521 | 54 | 0.0 | 0.0 | 0.00 | 0.34 | 0.00 | 100 | ||
| 20260510053522 | 54 | 0.0 | 0.0 | 0.00 | 0.34 | 0.00 | 100 | ||
| 20260510052522 | 54 | 0.0 | 0.0 | 0.00 | 0.34 | 0.00 | 100 | ||
| 20260510051541 | 53 | 0.0 | 0.0 | 0.00 | 0.34 | 0.00 | 100 | ||
| 20260510050520 | 53 | 0.0 | 0.0 | 0.00 | 0.34 | 0.00 | 100 | ||
| 20260510045522 | 54 | 0.0 | 0.0 | 0.00 | 0.34 | 0.00 | 100 | ||
| 20260510044516 | 54 | 0.0 | 0.0 | 0.00 | 0.34 | 0.00 | 100 | ||
| 20260510043521 | 54 | 0.0 | 0.0 | 0.00 | 0.34 | 0.00 | 100 | ||
| 20260510042522 | 54 | 0.0 | 0.0 | 0.00 | 0.34 | 0.00 | 100 | ||
| 20260510041541 | 53 | 0.0 | 0.0 | 0.00 | 0.34 | 0.00 | 100 | ||
| 20260510040542 | 53 | 0.0 | 0.0 | 0.00 | 0.34 | 0.00 | 100 | ||
| 20260510035516 | 53 | 0.0 | 0.0 | 0.00 | 0.34 | 0.34 | 100 | ||
| 20260510034536 | 52 | 0.0 | 0.0 | 0.00 | 0.34 | 0.34 | 100 | ||
| 20260510033521 | 52 | 0.0 | 0.0 | 0.00 | 0.34 | 0.34 | 100 | ||
| 20260510032521 | 52 | 0.0 | 0.0 | 0.00 | 0.34 | 0.34 | 99 | ||
| 20260510031521 | 52 | 0.0 | 0.0 | 0.00 | 0.34 | 0.34 | 99 | ||
| 20260510030521 | 53 | 0.0 | 0.0 | 0.00 | 0.34 | 0.34 | 100 | ||
| 20260510025521 | 52 | 0.0 | 0.0 | 0.00 | 0.34 | 0.34 | 99 | ||
| 20260510024516 | 52 | 0.0 | 0.0 | 0.00 | 0.34 | 0.34 | 99 | ||
| 20260510023516 | 52 | 0.0 | 0.0 | 0.00 | 0.34 | 0.34 | 99 | ||
| 20260510022521 | 52 | 0.0 | 0.0 | 0.00 | 0.34 | 0.34 | 99 | ||
| 20260510021521 | 52 | 0.0 | 0.0 | 0.00 | 0.34 | 0.34 | 99 | ||
| 20260510020521 | 52 | 0.0 | 0.0 | 0.00 | 0.34 | 0.34 | 99 | ||
| 20260510015521 | 52 | 0.0 | 0.0 | 0.00 | 0.34 | 0.34 | 99 | ||
| 20260510014522 | 52 | 0.0 | 0.0 | 0.00 | 0.34 | 0.34 | 99 | ||
| 20260510013516 | 52 | 0.0 | 0.0 | 0.00 | 0.34 | 0.34 | 99 | ||
| 20260510012522 | 52 | 0.0 | 0.0 | 0.00 | 0.34 | 0.34 | 99 | ||
| 20260510011521 | 52 | 0.0 | 0.0 | 0.00 | 0.34 | 0.34 | 99 | ||
| 20260510010541 | 52 | 0.0 | 0.0 | 0.00 | 0.34 | 0.34 | 99 | ||
| 20260510005522 | 52 | 0.0 | 0.0 | 0.00 | 0.34 | 0.34 | 99 | ||
| 20260510004519 | 52 | 0.0 | 0.0 | 0.00 | 0.34 | 0.34 | 99 | ||
| 20260510003541 | 52 | 0.0 | 0.0 | 0.00 | 0.34 | 0.34 | 99 | ||
| 20260510002516 | 52 | 0.0 | 0.0 | 0.00 | 0.34 | 0.34 | 99 | ||
| 20260510001521 | 52 | 0.0 | 0.0 | 0.00 | 0.34 | 0.34 | 99 | ||
| 20260510000601 | 52 | 0.0 | 0.0 | 0.00 | 0.34 | 0.34 | 99 | ||
| 20260509235541 | 52 | 0.0 | 0.0 | 0.00 | 0.34 | 0.34 | 99 | ||
| 20260509234521 | 52 | 0.0 | 0.0 | 0.00 | 0.34 | 0.34 | 99 | ||
| 20260509233521 | 52 | 0.0 | 0.0 | 0.00 | 0.34 | 0.34 | 98 | ||
| 20260509232541 | 52 | 0.0 | 0.0 | 0.00 | 0.34 | 0.34 | 98 | ||
| 20260509231516 | 51 | 0.0 | 0.0 | 0.00 | 0.34 | 0.34 | 98 | ||
| 20260509230521 | 52 | 0.0 | 0.0 | 0.00 | 0.34 | 0.34 | 98 | ||
| 20260509225521 | 51 | 0.0 | 0.0 | 0.00 | 0.34 | 0.34 | 98 | ||
| 20260509224541 | 51 | 0.0 | 0.0 | 0.00 | 0.34 | 0.34 | 98 | ||
| 20260509223522 | 51 | 0.0 | 0.0 | 0.00 | 0.34 | 0.34 | 98 | ||
| 20260509222521 | 51 | 0.0 | 0.0 | 0.01 | 0.34 | 0.34 | 98 | ||
| 20260509221521 | 51 | 0.0 | 0.0 | 0.01 | 0.34 | 0.34 | 98 | ||
| 20260509220515 | 51 | 0.0 | 0.0 | 0.02 | 0.34 | 0.34 | 98 | ||
| 20260509215521 | 51 | 0.0 | 0.0 | 0.03 | 0.34 | 0.34 | 98 | ||
| 20260509214521 | 51 | 0.0 | 0.0 | 0.04 | 0.34 | 0.34 | 98 | ||
| 20260509213542 | 51 | 0.0 | 0.0 | 0.04 | 0.34 | 0.34 | 97 | ||
| 20260509212521 | 51 | 0.0 | 0.0 | 0.04 | 0.33 | 0.33 | 97 | ||
| 20260509211521 | 51 | 0.0 | 0.0 | 0.05 | 0.33 | 0.32 | 97 | ||
| 20260509210516 | 51 | 0.0 | 0.0 | 0.05 | 0.32 | 0.32 | 97 | ||
| 20260509205515 | 51 | 0.0 | 0.0 | 0.05 | 0.31 | 0.31 | 97 | ||
| 20260509204521 | 51 | 0.0 | 0.0 | 0.05 | 0.30 | 0.30 | 97 | ||
| 20260509203541 | 51 | 0.0 | 0.0 | 0.05 | 0.30 | 0.30 | 97 | ||
| 20260509202521 | 51 | 0.0 | 0.0 | 0.05 | 0.29 | 0.29 | 97 | ||
| 20260509201542 | 51 | 0.0 | 0.0 | 0.04 | 0.28 | 0.28 | 97 | ||
| 20260509200521 | 51 | 0.0 | 0.0 | 0.03 | 0.27 | 0.27 | 97 | ||
| 20260509195516 | 50 | 0.0 | 0.0 | 0.02 | 0.26 | 0.26 | 97 | ||
| 20260509194516 | 50 | 0.0 | 0.0 | 0.01 | 0.25 | 0.25 | 97 |